FW6002 Weather Reports


time (UTC)temp
F
wind
direction
speed
knots
gust
knots
rain 1hr
in
rain 24hr
in
rain mn
in
humidity
%
barometer
mb
20260509212554 89 0 0.0 3.5 0.00 0.00 0.00 48 1007.7
20260509212057 89 0 0.0 3.5 0.00 0.00 0.00 45 1008.0
20260509211557 89 0 0.0 3.5 0.00 0.00 0.00 46 1008.1
20260509211055 89 61 0.9 3.5 0.00 0.00 0.00 46 1008.1
20260509210553 89 179 0.0 2.6 0.00 0.00 0.00 47 1008.2
20260509210104 89 198 0.0 1.7 0.00 0.00 0.00 47 1008.2
20260509205554 90 0 0.0 1.7 0.00 0.00 0.00 52 1008.3
20260509205052 90 0 0.0 1.7 0.00 0.00 0.00 53 1008.4
20260509204601 90 0 0.0 1.7 0.00 0.00 0.00 57 1008.5
20260509204052 90 0 0.0 1.7 0.00 0.00 0.00 53 1008.5
20260509203554 89 352 0.0 1.7 0.00 0.00 0.00 50 1008.6
20260509203058 89 0 0.0 0.9 0.00 0.00 0.00 50 1008.8
20260509202557 89 0 0.0 1.7 0.00 0.00 0.00 50 1008.7
20260509202058 90 0 0.0 1.7 0.00 0.00 0.00 54 1008.8
20260509201554 90 0 0.0 1.7 0.00 0.00 0.00 48 1008.8
20260509201054 90 0 0.0 1.7 0.00 0.00 0.00 57 1008.8
20260509200554 89 196 0.0 1.7 0.00 0.00 0.00 49 1008.9
20260509200105 90 0 0.0 1.7 0.00 0.00 0.00 56 1009.1
20260509195557 89 24 0.0 1.7 0.00 0.06 0.00 57 1009.0
20260509195056 88 0 0.0 1.7 0.00 0.06 0.00 51 1009.1
20260509194556 89 120 0.0 4.3 0.00 0.06 0.00 51 1009.4
20260509194054 88 114 0.9 4.3 0.00 0.06 0.00 52 1009.3
20260509193556 88 13 0.0 4.3 0.00 0.06 0.00 51 1009.2
20260509193108 88 5 0.0 2.6 0.00 0.06 0.00 54 1009.4
20260509192554 87 53 0.9 2.6 0.00 0.06 0.00 55 1009.6
20260509192059 87 126 0.0 1.7 0.00 0.06 0.00 56 1009.4
20260509191613 88 0 0.0 2.6 0.00 0.06 0.00 52 1009.6
20260509191053 87 46 0.0 2.6 0.00 0.06 0.00 56 1009.6
20260509190553 87 0 0.0 2.6 0.00 0.06 0.00 60 1009.5
20260509190112 87 0 0.0 1.7 0.00 0.06 0.00 55 1009.6
20260509185555 87 64 0.0 2.6 0.00 0.06 0.00 57 1009.8
20260509185054 87 0 0.0 2.6 0.00 0.06 0.00 54 1009.7
20260509184555 86 46 0.0 2.6 0.00 0.06 0.00 59 1009.8
20260509184054 86 161 0.0 1.7 0.00 0.06 0.00 53 1009.7
20260509183554 87 0 0.0 2.6 0.00 0.06 0.00 57 1009.9
20260509183059 87 162 0.0 2.6 0.00 0.06 0.00 60 1010.0
20260509182555 86 105 0.0 2.6 0.00 0.06 0.00 57 1009.9
20260509182054 86 27 0.0 3.5 0.00 0.06 0.00 58 1010.0
20260509181555 85 64 0.0 3.5 0.00 0.06 0.00 60 1010.2
20260509181055 86 0 0.9 3.5 0.00 0.06 0.00 57 1010.3
20260509180555 85 31 0.0 1.7 0.00 0.06 0.00 55 1010.3
20260509180058 85 0 0.0 1.7 0.00 0.06 0.00 58 1010.4
20260509175552 85 71 0.0 2.6 0.00 0.06 0.00 56 1010.5
20260509175052 86 0 0.0 3.5 0.00 0.06 0.00 57 1010.6
20260509174554 85 0 0.0 3.5 0.00 0.06 0.00 61 1010.6
20260509174057 85 15 0.0 1.7 0.00 0.06 0.00 60 1010.6
20260509173551 84 0 0.0 2.6 0.00 0.06 0.00 57 1010.7
20260509173104 84 0 0.0 2.6 0.00 0.06 0.00 59 1010.5
20260509172558 84 0 0.0 1.7 0.00 0.06 0.00 63 1010.7
20260509172055 83 0 0.0 1.7 0.00 0.06 0.00 59 1010.8
20260509171618 83 0 0.0 2.6 0.00 0.06 0.00 57 1010.9
20260509171054 83 0 0.0 2.6 0.00 0.06 0.00 59 1010.8
20260509170554 83 106 0.0 3.5 0.00 0.06 0.00 62 1010.9
20260509170059 83 0 0.0 3.5 0.00 0.06 0.00 60 1010.9
20260509165554 83 0 0.0 1.7 0.00 0.06 0.00 60 1011.1
20260509165054 83 0 0.0 3.5 0.00 0.06 0.00 59 1011.0
20260509164556 82 0 0.9 3.5 0.00 0.06 0.00 64 1011.1
20260509164055 82 0 0.0 1.7 0.00 0.06 0.00 63 1011.3
20260509163553 81 111 0.0 1.7 0.00 0.06 0.00 65 1011.1
20260509163059 81 0 0.0 1.7 0.00 0.06 0.00 65 1011.3
20260509162555 81 0 0.0 2.6 0.00 0.06 0.00 68 1011.0
20260509162054 82 0 0.0 2.6 0.00 0.06 0.00 68 1011.1
20260509161558 81 0 0.9 3.5 0.00 0.06 0.00 67 1011.0
20260509161054 81 0 0.9 3.5 0.00 0.06 0.00 68 1011.1
20260509160555 81 221 0.0 3.5 0.00 0.06 0.00 70 1011.1
20260509160057 80 340 0.0 3.5 0.00 0.06 0.00 69 1011.0
20260509155556 80 34 0.0 1.7 0.00 0.06 0.00 69 1011.0
20260509155054 80 0 0.0 1.7 0.00 0.06 0.00 71 1011.2
20260509154557 79 123 0.0 2.6 0.00 0.06 0.00 72 1011.2
20260509154054 78 67 0.0 2.6 0.00 0.06 0.00 73 1011.1
20260509153555 78 98 0.9 2.6 0.00 0.06 0.00 73 1011.2
20260509153058 79 0 0.0 2.6 0.00 0.06 0.00 71 1011.1
20260509152555 79 126 0.9 2.6 0.00 0.06 0.00 73 1011.2
20260509152055 79 40 0.0 1.7 0.00 0.06 0.00 72 1011.1
20260509151600 78 0 0.0 3.5 0.00 0.06 0.00 74 1011.3
20260509151058 78 0 0.0 3.5 0.00 0.06 0.00 73 1011.2
20260509150555 77 346 0.0 2.6 0.00 0.06 0.00 76 1011.2
20260509150058 76 24 0.9 2.6 0.00 0.06 0.00 75 1011.3
20260509145558 77 43 0.9 2.6 0.00 0.06 0.00 76 1011.3
20260509145054 77 51 0.0 4.3 0.00 0.06 0.00 76 1011.4
20260509144558 76 0 0.0 4.3 0.00 0.06 0.00 77 1011.4
20260509144054 76 48 0.9 3.5 0.00 0.06 0.00 77 1011.3
20260509143554 75 53 0.0 3.5 0.00 0.06 0.00 79 1011.3
20260509143058 75 56 0.9 3.5 0.00 0.06 0.00 79 1011.2
20260509142554 75 57 0.9 4.3 0.00 0.06 0.00 78 1011.1
20260509142054 74 51 0.9 4.3 0.00 0.06 0.00 79 1011.2
20260509141554 74 32 0.0 2.6 0.00 0.06 0.00 80 1011.1
20260509141055 74 67 0.0 3.5 0.00 0.06 0.00 80 1011.0
20260509140554 73 0 0.9 3.5 0.00 0.06 0.00 80 1011.0
20260509140059 73 61 0.9 2.6 0.00 0.06 0.00 81 1011.0
20260509135556 73 67 0.9 1.7 0.00 0.06 0.00 82 1011.1
20260509135055 72 45 0.0 2.6 0.00 0.06 0.00 83 1011.1
20260509134607 71 101 0.0 2.6 0.00 0.06 0.00 85 1010.9
20260509134054 71 62 0.0 1.7 0.00 0.06 0.00 86 1010.8
20260509133555 70 43 0.0 1.7 0.00 0.06 0.00 87 1010.9
20260509133057 70 34 0.0 1.7 0.00 0.06 0.00 87 1010.8
20260509132555 69 0 0.0 1.7 0.00 0.06 0.00 88 1010.7
20260509132057 69 0 0.0 1.7 0.00 0.06 0.00 89 1010.6
20260509131634 69 0 0.0 0.9 0.00 0.06 0.00 89 1010.4
20260509131055 69 0 0.0 0.9 0.00 0.06 0.00 89 1010.5
20260509130554 68 0 0.0 0.9 0.00 0.06 0.00 90 1010.6
20260509130125 68 0 0.0 0.9 0.00 0.06 0.00 90 1010.5
20260509125554 68 0 0.0 0.0 0.00 0.06 0.00 91 1010.3
20260509125056 68 0 0.0 0.0 0.00 0.06 0.00 91 1010.3
20260509124554 68 0 0.0 0.9 0.00 0.06 0.00 91 1010.4
20260509124055 67 0 0.0 0.9 0.00 0.06 0.00 92 1010.2
20260509123555 67 0 0.0 0.9 0.00 0.06 0.00 92 1010.1
20260509123101 67 0 0.0 1.7 0.00 0.06 0.00 92 1010.2
20260509122554 67 0 0.0 1.7 0.00 0.06 0.00 92 1010.0
20260509122054 66 0 0.0 0.0 0.00 0.06 0.00 93 1010.1
20260509121554 66 0 0.0 0.0 0.00 0.06 0.00 93 1010.1
20260509121055 66 0 0.0 0.0 0.00 0.06 0.00 92 1010.1
20260509120556 66 0 0.0 0.0 0.00 0.06 0.00 92 1010.2
20260509120105 66 0 0.0 0.0 0.00 0.06 0.00 92 1010.1
20260509115554 66 0 0.0 0.0 0.00 0.06 0.00 92 1010.1
20260509115054 66 0 0.0 0.0 0.00 0.06 0.00 92 1010.1
20260509114608 66 0 0.0 0.0 0.00 0.06 0.00 92 1010.3
20260509114054 66 0 0.0 0.0 0.00 0.06 0.00 92 1010.3
20260509113555 67 0 0.0 0.0 0.00 0.06 0.00 92 1010.4
20260509113101 67 0 0.0 0.0 0.00 0.06 0.00 92 1010.4
20260509112555 67 0 0.0 0.0 0.00 0.06 0.00 92 1010.2
20260509112056 67 0 0.0 0.0 0.00 0.06 0.00 92 1010.5
20260509111555 67 0 0.0 0.0 0.00 0.06 0.00 92 1010.3
20260509111055 67 0 0.0 0.0 0.00 0.06 0.00 92 1010.2
20260509110555 68 0 0.0 0.0 0.00 0.06 0.00 93 1010.1
20260509110105 68 0 0.0 0.0 0.00 0.06 0.00 93 1010.0
20260509105559 68 0 0.0 0.0 0.00 0.06 0.00 93 1010.1
20260509105055 68 0 0.0 0.0 0.00 0.06 0.00 93 1009.8
20260509104608 68 0 0.0 0.0 0.00 0.06 0.00 92 1009.5
20260509104054 68 0 0.0 0.9 0.00 0.06 0.00 93 1009.7
20260509103556 68 0 0.0 1.7 0.00 0.06 0.00 93 1009.4
20260509103054 68 0 0.0 1.7 0.00 0.06 0.00 93 1009.4
20260509102554 68 32 0.0 1.7 0.00 0.06 0.00 93 1009.2
20260509102055 68 0 0.0 1.7 0.00 0.06 0.00 93 1009.2
20260509101554 68 0 0.0 4.3 0.00 0.06 0.00 93 1009.3
20260509101059 68 186 0.0 4.3 0.00 0.06 0.00 93 1008.1
20260509100555 68 320 0.0 4.3 0.00 0.06 0.00 93 1008.9
20260509100054 68 0 0.0 1.7 0.00 0.06 0.00 93 1008.3
20260509095557 68 0 0.0 1.7 0.00 0.06 0.00 93 1007.7
20260509095055 69 0 0.0 3.5 0.00 0.06 0.00 93 1007.6
20260509094610 69 0 0.0 3.5 0.00 0.06 0.00 93 1007.1
20260509094056 69 165 0.0 4.3 0.00 0.06 0.00 93 1006.7
20260509093555 69 0 0.0 4.3 0.00 0.06 0.00 93 1007.1
20260509093057 69 294 0.9 4.3 0.00 0.06 0.00 93 1006.8
20260509092557 69 242 0.9 4.3 0.00 0.06 0.00 93 1006.5
20260509092054 69 347 0.0 4.3 0.00 0.06 0.00 93 1006.8
20260509091556 69 0 0.9 4.3 0.00 0.06 0.00 93 1007.0
20260509091056 69 75 0.9 4.3 0.00 0.06 0.00 93 1007.0
20260509090555 69 285 1.7 4.3 0.00 0.06 0.00 93 1007.1
20260509085554 69 0 0.9 6.1 0.00 0.06 0.00 93 1008.1
20260509085055 68 45 1.7 6.1 0.00 0.06 0.00 93 1008.5
20260509084604 68 0 0.0 7.8 0.00 0.06 0.00 93 1008.4
20260509084055 68 49 1.7 7.8 0.00 0.06 0.00 93 1008.6
20260509083558 68 0 0.0 4.3 0.00 0.06 0.00 93 1008.7
20260509083052 68 210 0.9 4.3 0.00 0.06 0.00 93 1008.8
20260509082555 68 199 0.0 5.2 0.00 0.06 0.00 93 1008.8
20260509082055 68 196 0.9 5.2 0.00 0.06 0.00 93 1009.0
20260509081557 68 183 0.9 5.2 0.00 0.06 0.00 93 1008.9
20260509081055 68 76 1.7 5.2 0.00 0.06 0.00 93 1009.0
20260509080555 68 145 0.9 4.3 0.00 0.06 0.00 93 1009.2
20260509080057 68 71 0.9 4.3 0.00 0.06 0.00 93 1009.4
20260509075555 68 92 0.9 3.5 0.00 0.06 0.00 93 1009.7
20260509075056 68 196 1.7 3.5 0.00 0.06 0.00 93 1009.8
20260509074601 68 0 0.0 2.6 0.00 0.06 0.00 93 1010.1
20260509074057 68 0 0.0 2.6 0.00 0.06 0.00 93 1010.5
20260509073555 68 192 0.9 1.7 0.00 0.06 0.00 93 1011.1
20260509073054 68 102 0.0 0.9 0.00 0.06 0.00 93 1011.4
20260509072556 68 0 0.0 1.7 0.00 0.06 0.00 93 1011.5
20260509072055 68 0 0.0 1.7 0.00 0.06 0.00 93 1011.4
20260509071607 68 0 0.0 1.7 0.00 0.06 0.00 93 1011.8
20260509071056 68 0 0.0 0.9 0.00 0.06 0.00 93 1011.7
20260509070555 68 302 0.0 2.6 0.00 0.06 0.00 93 1011.9
20260509070106 68 0 0.0 3.5 0.00 0.06 0.00 93 1012.3
20260509065555 68 39 0.0 3.5 0.00 0.06 0.00 93 1012.4
20260509065055 68 325 0.0 3.5 0.00 0.06 0.00 93 1012.4
20260509064559 68 0 0.0 0.9 0.00 0.06 0.00 93 1012.3
20260509064056 68 0 0.0 0.9 0.00 0.06 0.00 93 1012.0
20260509063556 68 0 0.0 0.9 0.00 0.06 0.00 93 1011.7
20260509063057 68 0 0.0 1.7 0.00 0.06 0.00 93 1011.6
20260509062556 68 0 0.0 1.7 0.00 0.06 0.00 93 1011.5
20260509062055 67 0 0.0 1.7 0.00 0.06 0.00 93 1011.7
20260509061607 67 0 0.0 0.9 0.00 0.06 0.00 93 1011.6
20260509061054 67 0 0.0 0.9 0.00 0.06 0.00 93 1011.6
20260509060556 67 0 0.0 0.9 0.00 0.06 0.00 92 1011.4
20260509060101 67 0 0.0 0.0 0.00 0.06 0.00 93 1010.7
20260509055555 67 0 0.0 0.0 0.00 0.06 0.00 92 1010.2
20260509055055 67 0 0.0 0.0 0.00 0.06 0.00 92 1010.2
20260509054616 67 0 0.0 0.0 0.00 0.06 0.00 92 1010.2
20260509054055 67 0 0.0 0.0 0.00 0.06 0.00 92 1010.4
20260509053556 68 0 0.0 0.0 0.00 0.06 0.00 92 1010.2
20260509053143 68 0 0.0 0.0 0.00 0.06 0.00 91 1010.3
20260509052558 68 0 0.0 0.9 0.00 0.06 0.00 92 1010.6
20260509052055 68 0 0.0 0.9 0.00 0.06 0.00 92 1010.6
20260509051559 68 0 0.0 0.0 0.00 0.06 0.00 91 1010.6
20260509051055 68 0 0.0 0.0 0.00 0.06 0.00 91 1010.6
20260509050555 68 0 0.0 0.0 0.00 0.06 0.00 91 1010.6
20260509050056 68 0 0.0 0.0 0.00 0.06 0.00 91 1010.6
20260509045555 68 0 0.0 0.9 0.00 0.06 0.06 90 1010.5
20260509045055 69 0 0.0 0.9 0.00 0.06 0.06 90 1010.2
20260509044557 69 0 0.0 0.9 0.00 0.06 0.06 90 1009.8
20260509044055 69 0 0.0 0.9 0.00 0.06 0.06 90 1009.8
20260509043554 69 0 0.0 2.6 0.00 0.06 0.06 90 1009.9
20260509043057 70 0 0.0 2.6 0.00 0.06 0.06 89 1009.9
20260509042555 70 0 0.9 2.6 0.00 0.06 0.06 89 1010.0
20260509042055 70 0 0.0 2.6 0.00 0.06 0.06 89 1009.8
20260509041559 70 0 0.0 2.6 0.00 0.06 0.06 89 1009.4
20260509041055 70 217 0.0 4.3 0.00 0.06 0.06 89 1009.4
20260509040555 70 0 0.9 4.3 0.00 0.06 0.06 89 1009.6
20260509040112 70 69 0.0 2.6 0.00 0.06 0.06 89 1009.6
20260509035555 70 0 0.9 2.6 0.00 0.06 0.06 89 1009.6
20260509035059 70 0 0.9 2.6 0.00 0.06 0.06 89 1009.6
20260509034619 70 0 0.0 2.6 0.00 0.06 0.06 88 1009.4
20260509034054 70 0 0.0 2.6 0.00 0.06 0.06 88 1009.5
20260509033555 70 69 0.0 2.6 0.00 0.06 0.06 88 1009.3
20260509033055 71 0 0.0 1.7 0.00 0.06 0.06 88 1009.3
20260509032557 71 0 0.0 1.7 0.00 0.06 0.06 88 1009.5
20260509032054 71 0 0.0 1.7 0.00 0.06 0.06 87 1009.5
20260509031555 71 0 0.9 2.6 0.00 0.06 0.06 87 1009.4
20260509031055 71 0 0.0 3.5 0.00 0.06 0.06 87 1009.4
20260509030556 71 61 0.9 3.5 0.00 0.06 0.06 87 1009.1
20260509030109 72 58 0.0 2.6 0.00 0.06 0.06 87 1009.2
20260509025555 72 0 0.0 1.7 0.00 0.06 0.06 87 1009.3
20260509025055 72 0 0.0 3.5 0.00 0.06 0.06 86 1009.0
20260509024552 72 0 0.0 3.5 0.00 0.06 0.06 86 1008.8
20260509024055 72 140 0.0 3.5 0.00 0.06 0.06 86 1008.9
20260509023558 72 178 0.0 2.6 0.00 0.06 0.06 87 1008.7
20260509023054 72 223 0.0 3.5 0.00 0.06 0.06 87 1008.8
20260509022555 72 89 0.0 3.5 0.00 0.06 0.06 87 1008.7
20260509022055 72 0 0.0 3.5 0.00 0.06 0.06 87 1008.8
20260509021559 72 0 0.0 0.9 0.00 0.06 0.06 87 1008.9
20260509021054 72 0 0.0 0.9 0.00 0.06 0.06 86 1008.9
20260509020554 72 0 0.0 0.9 0.00 0.06 0.06 86 1008.8
20260509020055 72 0 0.0 0.9 0.00 0.06 0.06 86 1008.8
20260509015554 72 0 0.0 0.9 0.00 0.06 0.06 85 1008.8
20260509015055 72 77 0.0 1.7 0.00 0.06 0.06 85 1008.8
20260509014554 72 0 0.0 1.7 0.00 0.06 0.06 85 1008.8
20260509014054 73 94 0.0 1.7 0.00 0.06 0.06 85 1008.6
20260509013554 73 35 0.0 1.7 0.00 0.06 0.06 85 1008.6
20260509013109 73 0 0.0 0.9 0.00 0.06 0.06 85 1008.6
20260509012554 73 0 0.0 0.9 0.00 0.06 0.06 84 1008.7
20260509012054 73 0 0.0 0.9 0.00 0.06 0.06 84 1008.5
20260509011608 73 0 0.0 0.9 0.00 0.06 0.06 84 1008.6
20260509011055 73 0 0.0 0.9 0.00 0.06 0.06 83 1008.4
20260509010555 73 0 0.0 0.9 0.00 0.06 0.06 83 1008.1
20260509010053 74 0 0.0 1.7 0.00 0.06 0.06 83 1008.2
20260509005555 74 0 0.0 1.7 0.00 0.06 0.06 82 1008.1
20260509005054 74 0 0.0 1.7 0.00 0.06 0.06 82 1008.1
20260509004607 74 0 0.0 1.7 0.00 0.06 0.06 82 1008.0
20260509004055 74 0 0.0 1.7 0.00 0.06 0.06 82 1008.0
20260509003559 74 0 0.0 1.7 0.00 0.06 0.06 82 1008.0
20260509003123 74 0 0.0 1.7 0.00 0.06 0.06 81 1007.8
20260509002554 75 0 0.0 0.9 0.00 0.06 0.06 81 1008.0
20260509002055 75 0 0.0 1.7 0.00 0.06 0.06 81 1007.8
20260509001605 75 0 0.0 1.7 0.00 0.06 0.06 81 1008.0
20260509001056 75 138 0.0 0.9 0.00 0.06 0.06 81 1008.0
20260509000558 75 0 0.0 0.9 0.00 0.06 0.06 81 1008.1
20260509000111 75 0 0.0 0.9 0.00 0.06 0.06 81 1008.1
20260508235555 75 0 0.0 0.9 0.00 0.06 0.06 80 1008.2
20260508235058 75 0 0.0 1.7 0.00 0.06 0.06 80 1008.1
20260508234553 75 0 0.0 1.7 0.00 0.06 0.06 80 1008.1
20260508234058 75 39 0.0 1.7 0.00 0.06 0.06 79 1008.1
20260508233555 75 0 0.0 2.6 0.00 0.06 0.06 79 1008.2
20260508233054 75 187 0.0 2.6 0.00 0.06 0.06 78 1008.1
20260508232555 75 0 0.0 3.5 0.00 0.06 0.06 78 1007.9
20260508232054 76 220 0.9 3.5 0.00 0.06 0.06 78 1008.0
20260508231559 76 0 0.9 3.5 0.00 0.06 0.06 78 1008.1
20260508231055 76 90 0.9 3.5 0.00 0.06 0.06 78 1007.7
20260508230556 76 59 0.0 3.5 0.00 0.06 0.06 77 1007.9
20260508225554 76 148 0.0 3.5 0.00 0.06 0.06 78 1008.0
20260508225056 76 196 0.9 3.5 0.00 0.06 0.06 77 1007.8
20260508224606 76 167 0.0 3.5 0.00 0.06 0.06 77 1008.1
20260508224055 75 0 0.9 5.2 0.00 0.06 0.06 78 1008.0
20260508223555 75 58 0.9 5.2 0.00 0.06 0.06 79 1008.1
20260508223055 74 0 0.9 5.2 0.00 0.06 0.06 79 1008.1
20260508222554 74 55 0.0 4.3 0.00 0.06 0.06 79 1008.3
20260508222055 74 40 0.9 2.6 0.00 0.06 0.06 79 1008.4
20260508221554 74 0 0.9 2.6 0.00 0.06 0.06 79 1008.4
20260508221055 74 164 0.9 4.3 0.00 0.06 0.06 78 1008.6
20260508220554 74 161 0.9 4.3 0.00 0.06 0.06 77 1008.5
20260508220059 75 42 0.9 3.5 0.00 0.06 0.06 77 1008.7
20260508215554 75 0 0.9 3.5 0.00 0.06 0.06 77 1008.7
20260508215100 75 233 0.0 3.5 0.00 0.06 0.06 78 1008.7
20260508214554 75 60 0.9 2.6 0.00 0.06 0.06 79 1008.7
20260508214056 74 11 0.0 1.7 0.00 0.06 0.06 80 1008.9
20260508213555 73 61 0.0 4.3 0.00 0.06 0.06 79 1008.9
20260508213102 73 169 0.0 4.3 0.00 0.06 0.06 79 1009.0